Home > Weather > Volta Redonda > Past weeks

Flag for Brazil Weather for the Past 2 Weeks in Volta Redonda, Rio de Janeiro, Brazil

Now
90 °F

Passing clouds.


Feels Like: 100 °F
Forecast: 69 / 87 °F
Wind: 9 mph from Southeast

Location: Galeao

Current Time: Feb 8, 2016 at 3:27:04 PM

Latest Report: Feb 8, 2016 at 3:00 PM


Visibility: N/A

Pressure: 29.95 "Hg

Humidity: 63%

Dew point: 75 °F

Location of Volta RedondaLocation

Historic Weather in Volta Redonda — Graph

°F

Volta Redonda Temperature Yesterday

Maximum temperature yesterday: 88 °F (at 11:00 AM)
Minimum temperature yesterday: 77 °F (at 4:00 AM)
Average temperature yesterday: 81 °F

High & Low Weather Summary for the Past Weeks

 TemperatureHumidityPressure
High99 °F (Jan 31, 3:00 PM)94% (Jan 26, 6:00 AM)30.01 "Hg (Jan 26, 6:00 AM)
Low75 °F (Jan 25, 3:00 AM)31% (Jan 31, 3:00 PM)29.59 "Hg (Jan 28, 3:00 AM)
Average83 °F74%29.92 "Hg
* Reported Jan 24 2:00 PM — Feb 8 2:00 PM, Volta Redonda, Weather by CustomWeather, © 2016

Note: Actual official high and low records may vary slightly from our data, if they occured in-between our weather recording intervals... More about our weather records

Advertising

Volta Redonda Weather History for the Previous 24 Hours

 ConditionsComfort  
Time TempWeatherWind HumidityBarometerVisibility
2:00 PM
Mon, Feb 8
88 °FPassing clouds.8 mph70%29.95 "HgN/A
1:00 PM88 °FPassing clouds.7 mph66%29.98 "HgN/A
12:00 PM88 °FPassing clouds.6 mph62%29.98 "HgN/A
11:00 AM84 °FPassing clouds.3 mph70%30.01 "HgN/A
10:00 AM84 °FPassing clouds.2 mph70%30.01 "HgN/A
9:00 AM81 °FPassing clouds.2 mph79%30.01 "HgN/A
8:00 AM77 °FPassing clouds.5 mph89%30.01 "HgN/A
7:00 AM75 °FScattered clouds.6 mph94%30.01 "HgN/A
6:00 AM75 °FPassing clouds.3 mph89%29.98 "HgN/A
5:00 AM75 °FClear.6 mph94%29.98 "Hg10 mi
4:00 AM77 °FClear.2 mph89%29.98 "Hg10 mi
3:00 AM77 °FClear.3 mph89%29.98 "Hg10 mi
2:00 AM77 °FClear.2 mph83%30.01 "Hg10 mi
1:00 AM77 °FClear.3 mph83%30.01 "Hg10 mi
12:00 AM77 °FClear.No wind83%30.01 "Hg10 mi
11:00 PM
Sun, Feb 7
77 °FClear.5 mph83%30.01 "Hg10 mi
10:00 PM79 °FPassing clouds.6 mph79%29.98 "HgN/A
9:00 PM79 °FPassing clouds.6 mph79%29.98 "HgN/A
8:00 PM79 °FPassing clouds.6 mph74%29.95 "HgN/A
7:00 PM81 °FPartly sunny.10 mph79%29.95 "HgN/A
6:00 PM81 °FBroken clouds.13 mph79%29.95 "HgN/A
5:00 PM82 °FBroken clouds.9 mph74%29.95 "HgN/A
4:00 PM84 °FPartly sunny.8 mph74%29.95 "HgN/A
3:00 PM84 °FScattered clouds.9 mph74%29.95 "HgN/A
Weather by CustomWeather, © 2016

See weather overviewHow to use our weather pages